Zurück zum Katalog

DELTA 1 DEB

AktivSSO
NORAD 12165·DEBRIS·🇺🇸 United States

Gestartet Mar 5, 1978 von Vandenberg Space Force Base

Loading…

Nächste Überflüge (nächste 24 Stunden)

TLE

AktuellSource: Space-Track

Epoche: Sep 14, 2026, 13:10 UTC

1 12165U 78026E   26257.54899187  .00000052  00000-0  53577-4 0  9999
2 12165  98.9840 291.9623 0042723 322.6137 201.4457 14.11084449132431

Verfolge DELTA 1 DEB in Echtzeit mit AllMySat

Download on the App Store